[[{"header":{"parameterUnit":"m.s-1","parameterCategory":2,"la1":30.2991,"la2":30.254,"lo1":-89.0895,"lo2":-89.0444,"dy":0.0017,"dx":0.0017,"nx":28,"ny":28,"refTime":"2024-08-27T03:00:00:Z","depth":"0","parameterNumber":2,"parameterNumberName":"U-component_of_CURRENTS"},"data":[0,0,0,0,0,0,0,0,0,0,0,0,0,0,0,0,0,0,0,0,0,0,0,0,0,0,0,0,0,0,0,0,0,0,0,0,0,0,0,0,0,0,0,0,0,0,0,0,0,0,0,0,0,0,0,0,0,0,0.3217,0.3218,0,0.3266,0.3267,0.3267,0.3286,0.3286,0.3286,0.3286,0.3337,0.3338,0.3339,0,0,0,0,0,0,0,0,0,0,0,0,0,0.3167,0.3168,0.3217,0.3218,0.3219,0.3266,0.3267,0.3267,0.3286,0.3286,0.3286,0.3286,0.3336,0.3338,0.3339,0,0,0,0,0,0,0,0,0,0,0,0,0,0.3198,0.3168,0.3217,0.3235,0.3238,0.3266,0.3267,0.3267,0.3286,0.3286,0.3286,0.3286,0.3336,0.3338,0.334,0.335,0,0,0.3345,0.3346,0,0,0,0,0,0,0,0,0.3196,0.3199,0.3232,0.3234,0.3237,0.3272,0.3268,0.3296,0.3286,0.3265,0.3286,0.3286,0.3317,0.332,0.3326,0.3352,0.3354,0.3346,0.3347,0.3348,0.3348,0,0,0,0,0,0,0,0.3194,0.3197,0.3234,0.3233,0.3236,0.3251,0.3255,0.3273,0.3288,0.3267,0.3269,0.3278,0.3318,0.3324,0.3327,0.3355,0.3346,0.3347,0.3349,0.3349,0.3429,0.343,0,0,0,0,0,0,0.3191,0.3195,0.3233,0.3236,0.3219,0.3252,0.3256,0.3259,0.3288,0.3293,0.3278,0.3279,0.3321,0.3325,0.3329,0.3388,0.3348,0.3349,0.3351,0.3428,0.3429,0.343,0,0,0,0,0,0,0.3189,0.3193,0.3231,0.3219,0.3225,0.3253,0.3255,0.326,0.3273,0.3297,0.3301,0.3287,0.3321,0.3326,0.335,0.3388,0.335,0.3352,0.3427,0.3428,0.343,0.3477,0,0,0,0,0,0,0.3188,0.3192,0.3195,0.3219,0.3226,0.3258,0.3256,0.3261,0.3279,0.328,0.3306,0.3311,0.3321,0.3347,0.3352,0.339,0.3354,0.3426,0.3428,0.3429,0.3474,0.3479,0.3484,0,0,0,0,0,0.3185,0.3192,0.3195,0.32,0.3228,0.3259,0.3264,0.3282,0.3279,0.3292,0.3303,0.331,0.3362,0.3349,0.3355,0.3395,0.3425,0.3427,0.3429,0.3472,0.3478,0.3484,0,0,0,0,0,0,0.3181,0.3196,0.3199,0.3212,0.3237,0.3263,0.3275,0.3285,0.3303,0.3301,0.3316,0.3322,0.3361,0.3364,0.3349,0.3421,0.3398,0.3401,0.3428,0.3434,0.344,0.3418,0.3355,0,0,0,0,0,0.3178,0.318,0.3207,0.3218,0.3229,0.325,0.3264,0.3278,0.3297,0.3305,0.3319,0.334,0.3373,0.3391,0.3411,0.3446,0.3457,0.3476,0.3482,0.3486,0.3472,0.3522,0.353,0.3437,0.3437,0.3437,0,0,0.318,0.3189,0.3191,0.3216,0.3232,0.3256,0.3259,0.3283,0.3307,0.3307,0.3335,0.3355,0.3384,0.3428,0.3446,0.3437,0.3523,0.3489,0.3493,0.3475,0.3525,0.3534,0.3542,0.3439,0.3439,0.3438,0,0,0.3182,0.3191,0.3193,0.3216,0.3243,0.3262,0.327,0.3296,0.3313,0.3345,0.3357,0.3388,0.3431,0.3461,0.3484,0.3526,0.3546,0.3544,0.3559,0.3609,0.3617,0.3624,0.3672,0.3683,0.355,0.3551,0.3551,0,0.3186,0.3184,0.3203,0.322,0.3233,0.3265,0.3278,0.3312,0.3343,0.3354,0.336,0.3422,0.3449,0.3507,0.3528,0.354,0.3568,0.3537,0.3617,0.3624,0.363,0.3677,0.3688,0.3553,0.3553,0.3553,0.3552,0,0.3194,0.3195,0.3202,0.3225,0.3253,0.3267,0.3314,0.334,0.3361,0.3387,0.3436,0.3471,0.3506,0.3536,0.355,0.3615,0.3621,0.3617,0.3601,0.3643,0.3689,0.3701,0.3557,0.3556,0.3555,0.3554,0,0,0.3187,0.3198,0.3199,0.3206,0.3247,0.3274,0.3317,0.3358,0.3404,0.3431,0.3489,0.3532,0.3542,0.3566,0.3595,0.3641,0.3728,0.3651,0.3653,0.3699,0.3846,0.38,0.3807,0.3746,0.3747,0.3749,0.3868,0,0.3179,0.3183,0.3198,0.3223,0.3231,0.3273,0.3319,0.3371,0.3426,0.3501,0.3535,0.3609,0.3562,0.3613,0.3637,0.3735,0.3755,0.3696,0.3796,0.3799,0.3754,0.3817,0.3653,0.374,0.3879,0.3881,0.3882,0,0.3176,0.3175,0.3174,0.3209,0.3221,0.3254,0.3331,0.3382,0.3488,0.3539,0.3586,0.3641,0.3722,0.3689,0.379,0.376,0.3781,0.3828,0.3834,0.3774,0.3773,0.3717,0.3755,0.3659,0.3899,0.3897,0.3896,0,0.315,0.3165,0.3152,0.3165,0.3217,0.3237,0.3282,0.3379,0.3451,0.3583,0.367,0.3729,0.3819,0.3845,0.3911,0.3874,0.4035,0.4002,0.3956,0.3954,0.382,0.3802,0.3769,0.4026,0.4026,0.4025,0.4025,0,0.3129,0.313,0.3141,0.3143,0.3179,0.3223,0.3301,0.3368,0.3498,0.3596,0.3683,0.3785,0.3866,0.3961,0.3967,0.4011,0.4067,0.3964,0.3983,0.3833,0.3817,0.373,0.3692,0.403,0.4029,0.4028,0.4027,0,0.3109,0.3103,0.311,0.3142,0.3165,0.32,0.3319,0.3389,0.3512,0.366,0.3716,0.388,0.4004,0.4064,0.4169,0.4104,0.4036,0.4128,0.3949,0.3941,0.3774,0.3745,0.3605,0.35,0.4103,0.4103,0.4103,0,0.3092,0.3086,0.3112,0.3136,0.3152,0.3216,0.327,0.3386,0.3466,0.3699,0.3767,0.3955,0.4043,0.4189,0.4156,0.4169,0.4027,0.3992,0.3863,0.3748,0.3732,0.359,0.3501,0.3722,0.3719,0.3716,0.3714,0,0.3082,0.3086,0.3097,0.3128,0.3173,0.3225,0.3304,0.3366,0.3509,0.3631,0.3786,0.3891,0.4044,0.4002,0.4035,0.4006,0.3801,0.3933,0.386,0.3462,0.3259,0.3173,0.3674,0.3688,0.3691,0.3693,0.3694,0.3695,0.3086,0.3088,0.3096,0.3127,0.3169,0.3191,0.3199,0.3288,0.3377,0.349,0.368,0.3748,0.3818,0.3848,0.3811,0.3642,0.3631,0.3487,0.3478,0.3358,0.318,0.3626,0.363,0.3632,0.3634,0.3635,0.3637,0,0.3069,0.3073,0.3101,0.3101,0.3097,0.3139,0.3184,0.3154,0.3174,0.3315,0.3413,0.346,0.3432,0.3452,0.3368,0.3211,0.3041,0.3105,0.286,0.2808,0.325,0.3156,0.3001,0.3001,0.3001,0.3001,0.3001,0.3001,0.3064,0.3054,0.3044,0.3006,0.3007,0.2935,0.2918,0.2891,0.2927,0.2926,0.2932,0.303,0.3165,0.3164,0.301,0.2919,0.2681,0.253,0.2551,0.2867,0.29,0.2932,0.2834,0.2613,0.2613,0.196,0.1955,0.1952]},{"header":{"parameterUnit":"m.s-1","parameterCategory":2,"la1":30.2991,"la2":30.254,"lo1":-89.0895,"lo2":-89.0444,"dy":0.0017,"dx":0.0017,"nx":28,"ny":28,"refTime":"2024-08-27T03:00:00:Z","depth":"0","parameterNumber":3,"parameterNumberName":"V-component_of_CURRENTS"},"data":[0,0,0,0,0,0,0,0,0,0,0,0,0,0,0,0,0,0,0,0,0,0,0,0,0,0,0,0,0,0,0,0,0,0,0,0,0,0,0,0,0,0,0,0,0,0,0,0,0,0,0,0,0,0,0,0,0,0,0.0322,0.0322,0,0.0282,0.0281,0.0281,0.0242,0.0242,0.0242,0.0242,0.0174,0.0172,0.0171,0,0,0,0,0,0,0,0,0,0,0,0,0,0.0318,0.0319,0.0322,0.0322,0.0321,0.0282,0.0281,0.028,0.0243,0.0242,0.0242,0.0242,0.0174,0.0173,0.0171,0,0,0,0,0,0,0,0,0,0,0,0,0,0.0301,0.0319,0.0322,0.0299,0.0297,0.0282,0.0281,0.028,0.0243,0.0242,0.0242,0.0241,0.0175,0.0173,0.017,0.0164,0,0,0.0163,0.0162,0,0,0,0,0,0,0,0,0.0302,0.0301,0.0303,0.0301,0.0298,0.0269,0.0255,0.0241,0.0243,0.0261,0.0242,0.0241,0.0205,0.02,0.0191,0.0161,0.0158,0.0163,0.0162,0.0161,0.016,0,0,0,0,0,0,0,0.0303,0.0302,0.0304,0.0303,0.03,0.0275,0.0272,0.0252,0.0233,0.0259,0.0257,0.0256,0.0203,0.0193,0.0189,0.0157,0.0163,0.0161,0.016,0.0159,0.0136,0.0136,0,0,0,0,0,0,0.0316,0.0304,0.0305,0.0303,0.0302,0.0276,0.0273,0.0277,0.0234,0.0228,0.0257,0.0255,0.0197,0.0191,0.0186,0.0199,0.0161,0.0159,0.0157,0.0135,0.0136,0.0137,0,0,0,0,0,0,0.0316,0.0317,0.0307,0.0304,0.0301,0.0277,0.0281,0.0276,0.027,0.0233,0.0226,0.0256,0.0197,0.0189,0.0178,0.0195,0.0157,0.0155,0.0134,0.0135,0.0136,0.021,0,0,0,0,0,0,0.0316,0.0317,0.0325,0.0305,0.0302,0.0309,0.0282,0.0276,0.0271,0.0268,0.023,0.0223,0.0196,0.0181,0.0175,0.0191,0.0154,0.0133,0.0135,0.0136,0.0207,0.0214,0.022,0,0,0,0,0,0.0316,0.0335,0.0326,0.0326,0.0314,0.031,0.0306,0.0285,0.0272,0.0276,0.0251,0.0225,0.0186,0.018,0.0173,0.0189,0.0132,0.0134,0.0136,0.0204,0.0213,0.022,0,0,0,0,0,0,0.0337,0.0333,0.0322,0.0338,0.0329,0.0305,0.0308,0.0292,0.0275,0.0271,0.0233,0.0225,0.0219,0.0195,0.0189,0.0186,0.0156,0.0156,0.021,0.0218,0.0224,0.0244,0.0152,0,0,0,0,0,0.0347,0.0359,0.0346,0.0358,0.0355,0.0332,0.0327,0.0314,0.0297,0.0288,0.0262,0.0237,0.022,0.0213,0.019,0.0191,0.0165,0.0196,0.0203,0.0209,0.022,0.0196,0.0202,0.0143,0.0143,0.0142,0,0,0.0356,0.0357,0.0363,0.0363,0.0351,0.0362,0.0328,0.0328,0.0341,0.0284,0.0289,0.0256,0.0224,0.0223,0.0219,0.0207,0.0212,0.0211,0.0216,0.0224,0.0199,0.0205,0.021,0.0144,0.0144,0.0143,0,0,0.0388,0.0384,0.0405,0.0404,0.0398,0.0386,0.0391,0.0372,0.0367,0.0368,0.033,0.0311,0.0287,0.0268,0.0257,0.0287,0.0244,0.0278,0.033,0.0308,0.0312,0.0316,0.0292,0.0293,0.0285,0.0285,0.0285,0,0.04,0.0426,0.041,0.043,0.0438,0.0403,0.0428,0.0421,0.0401,0.0405,0.0382,0.0348,0.0313,0.0317,0.0324,0.0302,0.028,0.0304,0.0317,0.032,0.0323,0.0297,0.0297,0.0289,0.0289,0.0288,0.0288,0,0.0447,0.0466,0.0479,0.0495,0.0502,0.0516,0.0508,0.0512,0.0499,0.0486,0.0484,0.0436,0.0417,0.0402,0.0371,0.0377,0.0351,0.0324,0.0299,0.0333,0.0303,0.0302,0.0294,0.0293,0.0292,0.0291,0,0,0.0482,0.0507,0.0514,0.0537,0.054,0.0556,0.0579,0.0593,0.0624,0.0586,0.0623,0.0567,0.053,0.0514,0.0468,0.0447,0.0437,0.0399,0.0396,0.0379,0.0386,0.0365,0.0361,0.0411,0.0411,0.0411,0.0358,0,0.0524,0.0581,0.0581,0.0637,0.0664,0.0653,0.0688,0.0695,0.0692,0.0718,0.0664,0.0675,0.0577,0.0582,0.0535,0.0478,0.0438,0.0454,0.0352,0.0349,0.033,0.0361,0.0365,0.0318,0.0356,0.0356,0.0356,0,0.0573,0.0608,0.0669,0.0724,0.0737,0.0769,0.0825,0.0852,0.0866,0.0868,0.0844,0.0803,0.0769,0.069,0.0575,0.059,0.0487,0.0427,0.0423,0.0379,0.0327,0.0289,0.0314,0.0159,0.0354,0.0354,0.0354,0,0.062,0.0674,0.073,0.0745,0.0796,0.0836,0.0871,0.0899,0.0956,0.0973,0.1022,0.0936,0.094,0.08,0.0643,0.0617,0.0523,0.0471,0.0346,0.0343,0.0315,0.031,0.0183,0.0375,0.0375,0.0375,0.0376,0,0.0672,0.072,0.0762,0.0797,0.0894,0.0902,0.1007,0.1031,0.1094,0.119,0.1105,0.117,0.097,0.0886,0.0704,0.0533,0.0557,0.0366,0.0333,0.0341,0.0338,0.0176,0.0081,0.0373,0.0374,0.0374,0.0375,0,0.0723,0.074,0.0818,0.0885,0.0921,0.0996,0.1121,0.1201,0.1241,0.1373,0.1397,0.1362,0.1252,0.1028,0.0825,0.0642,0.0372,0.0385,0.0407,0.0378,0.0117,0.0027,-0.0135,-0.0205,0.0254,0.0253,0.0252,0,0.0756,0.0798,0.0895,0.0963,0.1005,0.1116,0.1209,0.1277,0.1376,0.1506,0.1588,0.1529,0.1513,0.1197,0.085,0.0527,0.0348,0.0326,0.0267,0.0114,-0.001,-0.0075,-0.0126,0.0255,0.0254,0.0254,0.0253,0,0.0831,0.086,0.0928,0.1063,0.117,0.1297,0.1433,0.1535,0.1639,0.176,0.1897,0.1904,0.1604,0.1285,0.0829,0.0607,0.0224,0.0307,0.0144,-0.0018,-0.0092,-0.0177,0.0273,0.0249,0.025,0.025,0.025,0.025,0.0893,0.0956,0.1044,0.1174,0.1301,0.1458,0.1577,0.1729,0.1909,0.2096,0.2104,0.2136,0.1681,0.1065,0.075,0.0179,0.0168,0.0006,-0.0088,-0.0139,-0.0211,0.0233,0.0175,0.0175,0.0175,0.0175,0.0175,0,0.0956,0.103,0.1155,0.1304,0.1443,0.15,0.1713,0.1838,0.2054,0.222,0.2332,0.2108,0.1565,0.1002,0.0225,-0.0149,-0.0275,-0.0347,-0.0445,-0.0479,-0.0086,-0.009,-0.0201,-0.0201,-0.02,-0.02,-0.02,-0.02,0.0995,0.1105,0.1161,0.1384,0.1501,0.1691,0.181,0.2006,0.2151,0.2338,0.2346,0.2318,0.1869,0.055,-0.0328,-0.0517,-0.0751,-0.082,-0.0937,-0.0683,-0.0657,-0.0633,-0.0658,-0.0886,-0.0887,-0.1275,-0.1279,-0.1282]}],[{"header":{"parameterUnit":"m.s-1","parameterCategory":2,"la1":30.2991,"la2":30.254,"lo1":-89.0895,"lo2":-89.0444,"dy":0.0017,"dx":0.0017,"nx":28,"ny":28,"refTime":"2024-08-27T03:00:00:Z","depth":"2","parameterNumber":2,"parameterNumberName":"U-component_of_CURRENTS"},"data":[0,0,0,0,0,0,0,0,0,0,0,0,0,0,0,0,0,0,0,0,0,0,0,0,0,0,0,0,0,0,0,0,0,0,0,0,0,0,0,0,0,0,0,0,0,0,0,0,0,0,0,0,0,0,0,0,0,0,0.2745,0.2745,0,0.2774,0.2774,0.2774,0.2776,0.2776,0.2776,0.2776,0.2842,0.2844,0.2846,0,0,0,0,0,0,0,0,0,0,0,0,0,0.27,0.27,0.2745,0.2745,0.2746,0.2774,0.2774,0.2774,0.2776,0.2776,0.2776,0.2776,0.2841,0.2844,0.2846,0,0,0,0,0,0,0,0,0,0,0,0,0,0.2722,0.27,0.2745,0.2751,0.2752,0.2774,0.2774,0.2775,0.2776,0.2776,0.2776,0.2776,0.2841,0.2843,0.2846,0.287,0,0,0.2855,0.2856,0,0,0,0,0,0,0,0,0.272,0.2723,0.275,0.2751,0.2752,0.2773,0.2783,0.2809,0.2777,0.2766,0.2776,0.2775,0.2823,0.2828,0.2831,0.2873,0.2876,0.2855,0.2857,0.2858,0.2859,0,0,0,0,0,0,0,0.2719,0.2722,0.2755,0.275,0.2752,0.2756,0.2758,0.2787,0.2795,0.2767,0.2767,0.2773,0.2824,0.2828,0.2833,0.2877,0.2855,0.2858,0.286,0.2861,0.2937,0.2937,0,0,0,0,0,0,0.2718,0.272,0.2754,0.2756,0.2737,0.2757,0.276,0.2765,0.2794,0.2799,0.2773,0.2773,0.2823,0.2829,0.2835,0.2902,0.2858,0.2861,0.2863,0.2937,0.2937,0.2938,0,0,0,0,0,0,0.2717,0.2721,0.2753,0.274,0.2744,0.2758,0.2764,0.2766,0.2784,0.2799,0.2804,0.2791,0.2823,0.2831,0.2859,0.2903,0.2863,0.2865,0.2937,0.2937,0.2937,0.3012,0,0,0,0,0,0,0.2716,0.272,0.2727,0.274,0.2745,0.2774,0.2765,0.2767,0.2788,0.2788,0.2816,0.2821,0.2824,0.2854,0.2862,0.2906,0.2867,0.2936,0.2937,0.2937,0.3009,0.3015,0.302,0,0,0,0,0,0.2714,0.2724,0.2727,0.2731,0.2753,0.2775,0.2778,0.2786,0.2789,0.2801,0.2809,0.2821,0.2863,0.2857,0.2865,0.2912,0.2936,0.2937,0.2937,0.3007,0.3014,0.302,0,0,0,0,0,0,0.2707,0.2726,0.2729,0.2744,0.2762,0.2776,0.2789,0.2798,0.2814,0.2815,0.2828,0.2834,0.2878,0.2873,0.2866,0.2929,0.2901,0.2903,0.2951,0.2957,0.2962,0.2954,0.287,0,0,0,0,0,0.2709,0.2723,0.274,0.2754,0.2765,0.2781,0.2793,0.2799,0.2814,0.2821,0.2841,0.2857,0.2886,0.2902,0.292,0.2958,0.2965,0.2988,0.2994,0.2998,0.2994,0.3038,0.3048,0.294,0.294,0.294,0,0,0.2708,0.2723,0.2729,0.2754,0.2768,0.2789,0.2788,0.2809,0.2832,0.2828,0.2866,0.2884,0.2898,0.2939,0.2958,0.2943,0.3034,0.2999,0.3004,0.2996,0.304,0.305,0.306,0.294,0.294,0.294,0,0,0.2715,0.273,0.2743,0.2763,0.2789,0.2801,0.2813,0.2836,0.2853,0.2886,0.2894,0.2925,0.2966,0.2983,0.2999,0.3041,0.3064,0.3057,0.3084,0.3128,0.3137,0.3146,0.3184,0.3195,0.3057,0.3058,0.3058,0,0.2713,0.2729,0.2751,0.2773,0.2787,0.2811,0.2827,0.2856,0.2885,0.2902,0.2902,0.2968,0.2985,0.3041,0.3054,0.3058,0.3084,0.3067,0.3138,0.3146,0.3154,0.319,0.3202,0.3061,0.3061,0.306,0.306,0,0.2731,0.2745,0.2758,0.2791,0.2815,0.2832,0.287,0.2899,0.2924,0.2946,0.3004,0.3026,0.306,0.3084,0.3087,0.3157,0.3159,0.3147,0.313,0.317,0.3205,0.3216,0.3066,0.3065,0.3064,0.3063,0,0,0.271,0.2757,0.2759,0.2773,0.282,0.2839,0.2889,0.2929,0.2973,0.3006,0.3064,0.3107,0.3122,0.3138,0.316,0.3199,0.3286,0.3203,0.3203,0.3253,0.3394,0.333,0.3335,0.3302,0.3304,0.3306,0.3403,0,0.2708,0.2742,0.2768,0.2799,0.2817,0.2857,0.2906,0.2953,0.3003,0.307,0.3105,0.3173,0.3146,0.3191,0.322,0.3288,0.3316,0.3261,0.3334,0.3336,0.3285,0.3345,0.3075,0.3133,0.3414,0.3415,0.3417,0,0.2707,0.273,0.2755,0.2803,0.2816,0.2847,0.2923,0.2973,0.3069,0.3115,0.3172,0.3219,0.3297,0.327,0.3366,0.3341,0.3361,0.3393,0.3398,0.3314,0.329,0.3132,0.3142,0.3435,0.3433,0.3432,0.3431,0,0.2673,0.2715,0.2732,0.2749,0.2816,0.2842,0.2887,0.298,0.3037,0.3164,0.323,0.3303,0.3376,0.3413,0.3461,0.3438,0.3565,0.3537,0.3484,0.348,0.3247,0.3219,0.3579,0.3579,0.3578,0.3578,0.3578,0,0.2652,0.2663,0.272,0.2731,0.2771,0.283,0.2902,0.2965,0.3078,0.3161,0.3253,0.3336,0.3421,0.3496,0.3507,0.3537,0.3595,0.35,0.3505,0.3265,0.3239,0.3486,0.3474,0.3582,0.3581,0.358,0.358,0,0.2606,0.264,0.2665,0.2729,0.2756,0.2789,0.2901,0.296,0.308,0.3201,0.3252,0.3394,0.3504,0.356,0.3653,0.3602,0.3638,0.3617,0.3331,0.33,0.3511,0.3502,0.3585,0.3584,0.3583,0.3582,0.3581,0,0.258,0.2594,0.2656,0.2678,0.2705,0.2775,0.283,0.2948,0.3015,0.3224,0.327,0.3432,0.3501,0.361,0.3583,0.3594,0.3639,0.333,0.3217,0.3517,0.3515,0.3507,0.3499,0.2946,0.294,0.2935,0.2932,0,0.2539,0.2567,0.2591,0.2637,0.2683,0.2734,0.2818,0.2865,0.3021,0.311,0.3231,0.3311,0.3443,0.3338,0.3367,0.3327,0.3311,0.3232,0.3634,0.2986,0.2923,0.2917,0.2929,0.2888,0.2893,0.2896,0.2898,0.29,0.2509,0.2515,0.2556,0.2578,0.2635,0.2661,0.2664,0.2756,0.2821,0.2909,0.3072,0.3095,0.3146,0.3059,0.2966,0.2897,0.3117,0.2956,0.2968,0.2986,0.2894,0.2832,0.2763,0.2767,0.277,0.2772,0.2775,0,0.2454,0.2469,0.2495,0.249,0.2488,0.2565,0.2626,0.2586,0.2594,0.2718,0.2774,0.2588,0.2537,0.2588,0.2421,0.2415,0.2357,0.2309,0.2202,0.2249,0.229,0.2158,0.1834,0.1831,0.1828,0.1825,0,0,0.2432,0.2415,0.2409,0.2343,0.2347,0.2303,0.2316,0.2277,0.2319,0.227,0.2267,0.2459,0.2548,0.2174,0.2116,0.1946,0.2078,0.187,0.2634,0.2558,0.2595,0.2684,0.2538,0,0,0,0,0]},{"header":{"parameterUnit":"m.s-1","parameterCategory":2,"la1":30.2991,"la2":30.254,"lo1":-89.0895,"lo2":-89.0444,"dy":0.0017,"dx":0.0017,"nx":28,"ny":28,"refTime":"2024-08-27T03:00:00:Z","depth":"2","parameterNumber":3,"parameterNumberName":"V-component_of_CURRENTS"},"data":[0,0,0,0,0,0,0,0,0,0,0,0,0,0,0,0,0,0,0,0,0,0,0,0,0,0,0,0,0,0,0,0,0,0,0,0,0,0,0,0,0,0,0,0,0,0,0,0,0,0,0,0,0,0,0,0,0,0,0.0181,0.0181,0,0.014,0.0139,0.0139,0.0103,0.0103,0.0102,0.0102,0.0037,0.0036,0.0035,0,0,0,0,0,0,0,0,0,0,0,0,0,0.018,0.0181,0.0181,0.0181,0.018,0.014,0.0139,0.0139,0.0103,0.0103,0.0102,0.0102,0.0038,0.0036,0.0034,0,0,0,0,0,0,0,0,0,0,0,0,0,0.0163,0.0181,0.0181,0.0158,0.0156,0.014,0.0139,0.0138,0.0103,0.0103,0.0102,0.0102,0.0038,0.0036,0.0034,0.003,0,0,0.0028,0.0027,0,0,0,0,0,0,0,0,0.0164,0.0163,0.0162,0.016,0.0157,0.0127,0.0115,0.0101,0.0103,0.0122,0.0102,0.0102,0.0066,0.0062,0.0054,0.0027,0.0024,0.0027,0.0026,0.0025,0.0025,0,0,0,0,0,0,0,0.0166,0.0165,0.0164,0.0162,0.0159,0.0134,0.0131,0.0112,0.0096,0.012,0.0118,0.0115,0.0064,0.0056,0.0052,0.0023,0.0027,0.0026,0.0024,0.0023,-0.0004,-0.0004,0,0,0,0,0,0,0.0176,0.0166,0.0165,0.0162,0.0161,0.0135,0.0131,0.0136,0.0097,0.0091,0.0116,0.0114,0.006,0.0055,0.005,0.0057,0.0025,0.0023,0.0022,-0.0005,-0.0004,-0.0004,0,0,0,0,0,0,0.0176,0.0177,0.0167,0.0163,0.0161,0.0135,0.0141,0.0136,0.013,0.0094,0.0087,0.0116,0.0059,0.0053,0.0042,0.0054,0.0022,0.002,-0.0006,-0.0005,-0.0004,0.0063,0,0,0,0,0,0,0.0177,0.0177,0.0184,0.0165,0.0161,0.0165,0.0141,0.0135,0.0129,0.0127,0.0091,0.0085,0.0058,0.0045,0.004,0.005,0.0019,-0.0006,-0.0005,-0.0004,0.006,0.0066,0.0071,0,0,0,0,0,0.0177,0.0193,0.0184,0.0184,0.0171,0.0166,0.0162,0.0141,0.013,0.0133,0.0111,0.0086,0.0048,0.0044,0.0037,0.0048,-0.0007,-0.0006,-0.0004,0.0058,0.0065,0.0071,0,0,0,0,0,0,0.0193,0.019,0.0181,0.0194,0.0183,0.016,0.0161,0.0148,0.0132,0.013,0.0094,0.0086,0.008,0.0056,0.0053,0.0042,0.0016,0.0016,0.0065,0.0072,0.0077,0.0094,0.0017,0,0,0,0,0,0.0201,0.0215,0.02,0.021,0.0207,0.0185,0.018,0.0168,0.0152,0.0144,0.012,0.0096,0.008,0.007,0.005,0.0046,0.0018,0.0048,0.0053,0.0058,0.0067,0.0039,0.0043,0.0,0.0,0.0,0,0,0.0209,0.021,0.0216,0.0215,0.0204,0.0211,0.0181,0.018,0.019,0.014,0.0144,0.0114,0.0083,0.0079,0.0074,0.0061,0.0054,0.006,0.0064,0.007,0.0041,0.0045,0.0048,0.0001,0.0001,0.0001,0,0,0.0236,0.0233,0.0253,0.0251,0.0244,0.0233,0.0237,0.0219,0.0214,0.0213,0.0181,0.0161,0.0137,0.0116,0.0104,0.0127,0.0084,0.0119,0.0161,0.0134,0.0137,0.014,0.0105,0.0104,0.0122,0.0122,0.0122,0,0.0244,0.027,0.0256,0.0274,0.028,0.0248,0.0269,0.0262,0.0243,0.0246,0.0225,0.0189,0.0157,0.0155,0.016,0.0141,0.0116,0.0139,0.0142,0.0144,0.0145,0.0109,0.0107,0.0126,0.0125,0.0125,0.0124,0,0.0286,0.0304,0.0316,0.0332,0.0336,0.0347,0.0338,0.0341,0.0329,0.0315,0.0309,0.0263,0.0243,0.0226,0.02,0.0197,0.0172,0.0152,0.0127,0.0154,0.0113,0.011,0.013,0.0129,0.0128,0.0127,0,0,0.031,0.034,0.0345,0.0367,0.0369,0.0381,0.0402,0.0411,0.0432,0.0398,0.0419,0.0373,0.0339,0.0322,0.028,0.0252,0.0232,0.0212,0.0209,0.0182,0.0167,0.014,0.0133,0.0213,0.0213,0.0213,0.0133,0,0.0345,0.04,0.0403,0.0451,0.0477,0.0466,0.0493,0.0497,0.0489,0.0498,0.0448,0.0446,0.0379,0.0373,0.0333,0.0267,0.0227,0.0255,0.0142,0.0139,0.0115,0.013,0.0156,0.0088,0.013,0.0129,0.0129,0,0.0384,0.0421,0.0478,0.0526,0.0537,0.0559,0.06,0.0622,0.062,0.0615,0.0591,0.0548,0.0509,0.0449,0.0338,0.036,0.0269,0.0205,0.02,0.0151,0.0106,0.0068,0.0079,0.0123,0.0123,0.0124,0.0124,0,0.042,0.0473,0.0527,0.0541,0.0586,0.0615,0.0641,0.0656,0.0695,0.0693,0.0715,0.0642,0.0628,0.051,0.0368,0.0357,0.0241,0.0208,0.0091,0.0087,0.0076,0.0071,0.012,0.012,0.012,0.0121,0.0121,0,0.046,0.0502,0.0549,0.058,0.0656,0.0666,0.0742,0.0756,0.0791,0.0858,0.078,0.0807,0.0645,0.0556,0.0406,0.0244,0.0264,0.0103,0.0069,0.0099,0.0098,0.0102,0.0101,0.0118,0.0118,0.0119,0.0119,0,0.0486,0.0516,0.0583,0.0645,0.0676,0.073,0.0825,0.088,0.09,0.0987,0.0998,0.0937,0.0829,0.0644,0.0457,0.0308,0.0146,0.0075,0.0115,0.0088,-0.0003,0.0001,-0.0054,-0.0056,-0.0057,-0.0058,-0.0059,0,0.0505,0.0543,0.0636,0.069,0.0722,0.081,0.0883,0.0936,0.1005,0.1077,0.1126,0.1047,0.1009,0.0709,0.0438,0.017,0.0132,0.0007,-0.0015,0.0008,-0.0019,-0.0013,-0.0008,-0.001,-0.001,-0.0011,-0.0011,0,0.0542,0.0572,0.0634,0.0748,0.0833,0.0939,0.1044,0.1119,0.1204,0.1266,0.133,0.1304,0.1042,0.0775,0.0402,0.0222,0.0053,-0.001,0.0012,0.0033,0.0045,0.002,0.0025,-0.0014,-0.0014,-0.0013,-0.0013,-0.0013,0.0571,0.062,0.0708,0.0811,0.0921,0.1056,0.1154,0.1267,0.1392,0.1501,0.1469,0.1436,0.1143,0.067,0.0349,0.0018,0.0036,-0.0085,-0.0082,-0.0078,-0.0056,-0.0047,-0.012,-0.012,-0.012,-0.012,-0.012,0,0.0609,0.0672,0.0769,0.0896,0.1013,0.1073,0.1256,0.135,0.1504,0.1592,0.1628,0.1348,0.105,0.0713,0.0224,-0.0073,-0.0088,-0.0168,-0.012,-0.0114,-0.011,-0.0088,-0.0161,-0.0162,-0.0163,-0.0164,0,0,0.0635,0.0727,0.0774,0.0954,0.105,0.1218,0.1333,0.1476,0.1577,0.1644,0.1631,0.1571,0.1168,0.0802,0.04,0.012,0.0072,0.0064,0.0131,0.0241,0.0248,-0.0028,0.0016,0,0,0,0,0]}],[{"header":{"parameterUnit":"m.s-1","parameterCategory":2,"la1":30.2991,"la2":30.254,"lo1":-89.0895,"lo2":-89.0444,"dy":0.0017,"dx":0.0017,"nx":28,"ny":28,"refTime":"2024-08-27T03:00:00:Z","depth":"4","parameterNumber":2,"parameterNumberName":"U-component_of_CURRENTS"},"data":[0,0,0,0,0,0,0,0,0,0,0,0,0,0,0,0,0,0,0,0,0,0,0,0,0,0,0,0,0,0,0,0,0,0,0,0,0,0,0,0,0,0,0,0,0,0,0,0,0,0,0,0,0,0,0,0,0,0,0.1719,0.172,0,0.1774,0.1775,0.1775,0.1817,0.1818,0.1818,0.1819,0.1872,0.1873,0.1873,0,0,0,0,0,0,0,0,0,0,0,0,0,0.1645,0.1646,0.1719,0.172,0.1721,0.1774,0.1775,0.1775,0.1817,0.1818,0.1819,0.1819,0.1871,0.1872,0.1873,0,0,0,0,0,0,0,0,0,0,0,0,0,0.1684,0.1646,0.1719,0.175,0.1753,0.1774,0.1775,0.1775,0.1817,0.1818,0.1819,0.182,0.1871,0.1872,0.1874,0.1863,0,0,0.1877,0.1878,0,0,0,0,0,0,0,0,0.1682,0.1686,0.1744,0.1748,0.1752,0.1792,0.1768,0.1806,0.1817,0.179,0.1819,0.182,0.1846,0.1849,0.1854,0.1866,0.1868,0.1878,0.1878,0.1879,0.1879,0,0,0,0,0,0,0,0.1679,0.1684,0.1738,0.1745,0.175,0.176,0.1766,0.1775,0.181,0.1793,0.1796,0.1806,0.1847,0.1853,0.1856,0.1869,0.1878,0.1879,0.1879,0.188,0.198,0.1982,0,0,0,0,0,0,0.1676,0.1682,0.1737,0.174,0.1721,0.176,0.1767,0.1776,0.181,0.1817,0.1805,0.1808,0.185,0.1854,0.1858,0.1945,0.1879,0.188,0.1881,0.1978,0.198,0.1982,0,0,0,0,0,0,0.1674,0.168,0.1735,0.1714,0.1722,0.1761,0.177,0.1777,0.1819,0.182,0.1827,0.1846,0.1851,0.1856,0.1903,0.1943,0.1881,0.1882,0.1976,0.1979,0.1981,0.2056,0,0,0,0,0,0,0.1672,0.1679,0.1703,0.1714,0.1723,0.1768,0.177,0.1777,0.1823,0.1828,0.1856,0.186,0.1852,0.1901,0.1904,0.1944,0.1883,0.1973,0.1977,0.198,0.2051,0.2061,0.2069,0,0,0,0,0,0.1669,0.169,0.1703,0.1711,0.1748,0.1769,0.1775,0.1803,0.1824,0.1845,0.1874,0.1861,0.1926,0.1904,0.1907,0.1948,0.1972,0.1976,0.198,0.2047,0.2059,0.2069,0,0,0,0,0,0,0.1666,0.1696,0.1712,0.1741,0.1765,0.1778,0.1807,0.1825,0.1864,0.1882,0.1883,0.1889,0.1945,0.1937,0.1913,0.1988,0.1948,0.1953,0.1998,0.2009,0.2018,0.2021,0.1884,0,0,0,0,0,0.1677,0.1706,0.1727,0.1755,0.1771,0.1798,0.1819,0.1838,0.1865,0.1885,0.1905,0.1931,0.1958,0.1978,0.1993,0.2033,0.2034,0.2062,0.2072,0.2079,0.2085,0.2125,0.2139,0.1996,0.1996,0.1996,0,0,0.1683,0.1706,0.1723,0.1758,0.1782,0.1809,0.1813,0.1855,0.1888,0.1883,0.1946,0.1966,0.1977,0.2024,0.2048,0.2027,0.2123,0.2085,0.2091,0.2093,0.2131,0.2145,0.2157,0.1999,0.1999,0.1998,0,0,0.1698,0.1733,0.176,0.1785,0.183,0.1844,0.1865,0.19,0.1933,0.1987,0.1997,0.2044,0.2082,0.2098,0.211,0.2179,0.217,0.2191,0.2241,0.2281,0.2293,0.2303,0.2329,0.2341,0.2196,0.2196,0.2196,0,0.1708,0.174,0.1771,0.1802,0.1828,0.1864,0.1894,0.1928,0.1978,0.2008,0.2021,0.2103,0.2116,0.2171,0.2202,0.22,0.2219,0.2197,0.2293,0.2303,0.2313,0.2336,0.2348,0.22,0.2199,0.2199,0.2199,0,0.1731,0.1772,0.1791,0.1842,0.1875,0.1908,0.1952,0.2,0.2048,0.2078,0.2159,0.2187,0.2233,0.2252,0.2253,0.2329,0.232,0.23,0.2263,0.2331,0.2352,0.2363,0.2206,0.2204,0.2203,0.2202,0,0,0.1706,0.1791,0.1801,0.1832,0.19,0.1922,0.1991,0.2048,0.2101,0.2166,0.2233,0.2296,0.2323,0.2339,0.2352,0.2395,0.2483,0.2388,0.2388,0.2409,0.2575,0.2404,0.24,0.2488,0.249,0.2492,0.2564,0,0.1714,0.1778,0.1818,0.1877,0.191,0.1968,0.2022,0.2087,0.2153,0.2228,0.2284,0.2356,0.2352,0.2397,0.2439,0.2478,0.2517,0.2465,0.2508,0.2509,0.2345,0.2408,0.2499,0.2572,0.2575,0.2577,0.2578,0,0.1711,0.1759,0.1823,0.19,0.192,0.1966,0.2062,0.2118,0.2226,0.2283,0.2365,0.2412,0.2503,0.2487,0.2584,0.2558,0.2576,0.2595,0.2597,0.2417,0.2358,0.2489,0.2599,0.2597,0.2596,0.2594,0.2593,0,0.1666,0.1752,0.1807,0.1834,0.1931,0.198,0.2039,0.2143,0.2202,0.2336,0.2399,0.2493,0.2564,0.2612,0.2656,0.2641,0.2746,0.2719,0.2576,0.2564,0.2663,0.2651,0.2776,0.2776,0.2776,0.2776,0.2776,0,0.1636,0.1679,0.1799,0.1826,0.1891,0.1973,0.2055,0.213,0.225,0.2318,0.2432,0.2493,0.2605,0.267,0.2691,0.2664,0.2772,0.2593,0.2573,0.2693,0.2684,0.2671,0.2658,0.2779,0.2778,0.2778,0.2777,0,0.1565,0.1648,0.1711,0.1831,0.1873,0.1924,0.2054,0.2103,0.2242,0.234,0.2393,0.253,0.2614,0.2686,0.2769,0.2689,0.2694,0.2652,0.2784,0.277,0.248,0.247,0.2504,0.2498,0.2494,0.249,0.2487,0,0.153,0.1564,0.17,0.1739,0.1797,0.1891,0.1943,0.2085,0.2141,0.2333,0.2362,0.2503,0.2574,0.2551,0.2638,0.2654,0.2618,0.2594,0.2525,0.2475,0.2454,0.2451,0.2448,0.2479,0.2478,0.2477,0.2476,0,0.1455,0.1523,0.1576,0.1662,0.1729,0.1787,0.1885,0.1911,0.207,0.2221,0.2278,0.2322,0.2401,0.2448,0.2473,0.2479,0.2597,0.2545,0.2554,0.249,0.2446,0.2429,0.2431,0.246,0.2462,0.2464,0.2465,0,0.1401,0.1418,0.1502,0.1557,0.1631,0.1651,0.1719,0.1785,0.186,0.2074,0.2088,0.2237,0.2377,0.2358,0.2385,0.2375,0.2338,0.2248,0.2272,0.229,0.2184,0.2094,0.199,0,0,0,0,0,0.134,0.1346,0.1387,0.1432,0.1493,0.1543,0.1657,0.1731,0.1893,0.188,0.1981,0.2047,0.2093,0.2168,0.2115,0.2287,0.2342,0.2213,0.2248,0.2372,0.239,0.2283,0,0,0,0,0,0,0.1299,0.1338,0.1345,0.1309,0.1317,0.137,0.1437,0.1551,0.1558,0.1738,0.1776,0.1917,0.1995,0.2105,0.2075,0.2097,0.2074,0.2313,0.2307,0.2362,0.2378,0.2393,0.2289,0,0,0,0,0]},{"header":{"parameterUnit":"m.s-1","parameterCategory":2,"la1":30.2991,"la2":30.254,"lo1":-89.0895,"lo2":-89.0444,"dy":0.0017,"dx":0.0017,"nx":28,"ny":28,"refTime":"2024-08-27T03:00:00:Z","depth":"4","parameterNumber":3,"parameterNumberName":"V-component_of_CURRENTS"},"data":[0,0,0,0,0,0,0,0,0,0,0,0,0,0,0,0,0,0,0,0,0,0,0,0,0,0,0,0,0,0,0,0,0,0,0,0,0,0,0,0,0,0,0,0,0,0,0,0,0,0,0,0,0,0,0,0,0,0,0.0134,0.0134,0,0.0108,0.0108,0.0107,0.0087,0.0087,0.0087,0.0087,0.0042,0.0041,0.004,0,0,0,0,0,0,0,0,0,0,0,0,0,0.0131,0.0131,0.0134,0.0134,0.0133,0.0108,0.0108,0.0107,0.0087,0.0087,0.0087,0.0087,0.0043,0.0041,0.004,0,0,0,0,0,0,0,0,0,0,0,0,0,0.0121,0.0131,0.0134,0.0121,0.0119,0.0108,0.0108,0.0107,0.0087,0.0087,0.0087,0.0087,0.0043,0.0041,0.004,0.0034,0,0,0.0035,0.0034,0,0,0,0,0,0,0,0,0.0121,0.0121,0.0123,0.0122,0.012,0.0101,0.009,0.0082,0.0087,0.0099,0.0087,0.0087,0.0061,0.0058,0.0053,0.0032,0.003,0.0035,0.0034,0.0033,0.0033,0,0,0,0,0,0,0,0.0122,0.0122,0.0123,0.0123,0.0121,0.0104,0.0103,0.0088,0.008,0.0098,0.0096,0.0095,0.006,0.0054,0.0051,0.0029,0.0035,0.0033,0.0032,0.0032,0.0008,0.0008,0,0,0,0,0,0,0.0129,0.0122,0.0124,0.0122,0.0121,0.0105,0.0103,0.0107,0.0081,0.0077,0.0095,0.0094,0.0057,0.0053,0.005,0.0054,0.0033,0.0032,0.0031,0.0007,0.0008,0.0008,0,0,0,0,0,0,0.0129,0.0129,0.0125,0.0122,0.012,0.0105,0.011,0.0107,0.0104,0.0079,0.0075,0.0096,0.0057,0.0052,0.0046,0.0052,0.0031,0.0029,0.0007,0.0007,0.0008,0.0055,0,0,0,0,0,0,0.0129,0.013,0.0135,0.0123,0.0121,0.0124,0.011,0.0106,0.0104,0.0102,0.0079,0.0074,0.0056,0.0048,0.0044,0.0049,0.0028,0.0007,0.0007,0.0008,0.0053,0.0057,0.006,0,0,0,0,0,0.0129,0.0141,0.0136,0.0136,0.0129,0.0125,0.0122,0.011,0.0104,0.0107,0.0093,0.0075,0.0049,0.0048,0.0042,0.0047,0.0006,0.0007,0.0008,0.0051,0.0056,0.006,0,0,0,0,0,0,0.014,0.0139,0.0134,0.0144,0.0137,0.0122,0.0124,0.0115,0.0106,0.0106,0.0081,0.0076,0.0072,0.0054,0.0053,0.0042,0.0023,0.0023,0.0058,0.0062,0.0066,0.0078,0.0027,0,0,0,0,0,0.0146,0.0156,0.0147,0.0155,0.0153,0.0139,0.0136,0.0129,0.0119,0.0115,0.0099,0.0082,0.007,0.0063,0.0049,0.0044,0.0019,0.0042,0.0046,0.0049,0.0056,0.0026,0.0028,0.001,0.001,0.001,0,0,0.0151,0.0153,0.0158,0.0158,0.0151,0.0158,0.0137,0.0138,0.0146,0.0111,0.0117,0.0095,0.0073,0.0069,0.0064,0.0055,0.004,0.005,0.0053,0.0058,0.0027,0.0029,0.003,0.0011,0.0011,0.0011,0,0,0.0171,0.017,0.0185,0.0184,0.018,0.0173,0.0176,0.0165,0.0163,0.0165,0.0142,0.0127,0.011,0.0093,0.0083,0.0098,0.0061,0.0091,0.0119,0.009,0.0091,0.0092,0.0057,0.0054,0.0092,0.0092,0.0092,0,0.0176,0.0195,0.0187,0.0199,0.0205,0.0185,0.0201,0.0196,0.0185,0.0186,0.0174,0.0146,0.0123,0.0117,0.0121,0.0107,0.0082,0.0105,0.0095,0.0095,0.0095,0.0059,0.0055,0.0094,0.0094,0.0094,0.0093,0,0.0204,0.022,0.0228,0.0241,0.0245,0.0255,0.025,0.0253,0.0247,0.0237,0.0231,0.0197,0.0181,0.0167,0.0149,0.0139,0.0118,0.0104,0.0085,0.01,0.006,0.0056,0.0097,0.0097,0.0096,0.0095,0,0,0.0218,0.0244,0.0248,0.0265,0.0271,0.0279,0.0296,0.0303,0.0315,0.0294,0.0304,0.0272,0.0247,0.0234,0.0202,0.0172,0.0145,0.0142,0.0139,0.011,0.0076,0.0061,0.0054,0.0129,0.0129,0.0128,0.0046,0,0.0243,0.0282,0.0288,0.0325,0.0344,0.034,0.036,0.0364,0.0357,0.0359,0.0322,0.0316,0.0275,0.0267,0.0233,0.0172,0.0136,0.0168,0.0064,0.006,0.0048,0.0049,0.0127,0.0043,0.0041,0.0041,0.004,0,0.0266,0.0294,0.0338,0.0376,0.0385,0.0404,0.0433,0.0449,0.0443,0.0438,0.0418,0.0385,0.0347,0.0309,0.0211,0.0234,0.0161,0.0106,0.0101,0.0069,0.0037,0.0025,0.0031,0.0032,0.0033,0.0033,0.0034,0,0.0284,0.0327,0.0369,0.038,0.0418,0.0443,0.0465,0.0473,0.05,0.0489,0.0497,0.0439,0.042,0.0328,0.0211,0.0213,0.0092,0.008,-0.0006,-0.0009,0.0009,0.0009,0.0005,0.0005,0.0005,0.0006,0.0006,0,0.0306,0.0338,0.0383,0.0406,0.0463,0.0476,0.053,0.054,0.0562,0.0596,0.0542,0.0543,0.0424,0.034,0.0228,0.0097,0.0103,-0.0001,-0.0028,0.0029,0.0032,0.0004,0.0006,0.0002,0.0003,0.0004,0.0004,0,0.0312,0.0342,0.0393,0.0448,0.0474,0.0513,0.0588,0.0622,0.0636,0.0678,0.0682,0.0623,0.052,0.038,0.0222,0.0126,-0.0005,-0.006,0.0007,-0.0016,-0.0092,-0.0087,-0.0149,-0.0151,-0.0152,-0.0152,-0.0153,0,0.0318,0.0346,0.0425,0.0466,0.0495,0.0562,0.0615,0.0658,0.07,0.0726,0.0747,0.0667,0.0607,0.0377,0.022,0.0001,-0.0035,-0.0112,-0.0096,-0.0086,-0.0107,-0.0101,-0.0095,-0.0155,-0.0155,-0.0155,-0.0155,0,0.0328,0.0356,0.0403,0.0491,0.0557,0.0634,0.071,0.0749,0.0802,0.0813,0.0804,0.0694,0.0571,0.0389,0.0209,0.0051,-0.0062,-0.0122,-0.0121,-0.0107,-0.0093,-0.0111,-0.0105,-0.0159,-0.0158,-0.0158,-0.0158,0,0.0337,0.0369,0.0437,0.0515,0.0602,0.0688,0.0726,0.0783,0.0831,0.0859,0.085,0.0724,0.0651,0.0413,0.025,0.0091,0.0056,-0.0001,-0.0007,-0.0005,0.0057,0.0097,0.0068,0,0,0,0,0,0.0346,0.0391,0.0458,0.0553,0.0637,0.0695,0.0786,0.0818,0.0869,0.0873,0.0869,0.0758,0.0535,0.0436,0.0278,0.0218,0.0014,0.0024,-0.0058,-0.0178,-0.0174,-0.0127,0,0,0,0,0,0,0.0356,0.0419,0.0457,0.0572,0.0639,0.0742,0.0806,0.0838,0.0842,0.0862,0.0748,0.0705,0.0485,0.0628,0.0271,0.0223,0.0146,-0.0076,-0.008,-0.018,-0.0176,-0.0173,-0.0124,0,0,0,0,0]}]]